Location: S�tio Afonso Gruber
(26.1760°S, 49.5250°W)
Time: 12:17:25
(UTC+00:00)

ESTCUBE 1 - Visible Passes

Search period start: 08 December 2022 00:00
Search period end: 18 December 2022 00:00
Orbit: 644 x 656 km, 97.9° (Epoch: 08 December)

Date Brightness Start Highest point End Pass type
(mag) Time Alt. Az. Time Alt. Az. Time Alt. Az.
08 Dec ? 02:20:04 10° S 02:20:34 13° S 02:20:34 13° S visible
09 Dec ? 02:47:19 10° SSW 02:47:34 11° SSW 02:47:34 11° SSW visible
11 Dec ? 02:03:12 10° S 02:03:44 13° S 02:03:44 13° S visible
12 Dec ? 02:30:06 10° S 02:30:42 13° S 02:30:42 13° S visible
13 Dec ? 02:57:38 10° SSW 02:57:40 10° SSW 02:57:40 10° SSW visible
14 Dec ? 01:46:29 10° SSE 01:46:50 12° SSE 01:46:50 12° SSE visible
15 Dec ? 02:13:05 10° S 02:13:48 14° S 02:13:48 14° S visible
16 Dec ? 02:40:10 10° SSW 02:40:46 13° SSW 02:40:46 13° SSW visible
